Retour au catalogue

CZ-4C DEB

ActifSSO
NORAD 43412·DEBRIS·🇨🇳 China

Lancé Nov 20, 2013 depuis Taiyuan Satellite Launch Center

Loading…

Prochains Passages (prochaines 24 heures)

TLE

FraisSource: Space-Track

Époque: Sep 13, 2026, 04:47 UTC

1 43412U 13065C   26256.19996941 -.00000013  00000-0  79045-4 0  9992
2 43412 100.6026  19.2589 0133162  61.3002 300.1421 13.17727132607911

Suivez CZ-4C DEB en temps réel avec AllMySat

Download on the App Store